Location: Famechon
(49.7599°N, 2.0615°E)
Time: 14:19:29
(UTC+00:00)

Cosmos 1553 Rocket - Visible Passes

Search period start: 25 September 2023 00:00
Search period end: 05 October 2023 00:00
Orbit: 940 x 1008 km, 82.9° (Epoch: 24 September)

Date Brightness Start Highest point End Pass type
(mag) Time Alt. Az. Time Alt. Az. Time Alt. Az.
25 Sep 4.8 02:04:23 10° N 02:10:15 45° ENE 02:13:21 26° SE visible
25 Sep 4.5 03:50:02 10° NNW 03:55:29 35° W 03:57:53 26° SW visible
26 Sep 6.4 00:45:29 10° NNE 00:48:59 15° ENE 00:52:30 10° E visible
26 Sep 4.0 02:29:20 10° N 02:35:29 75° E 02:37:04 52° SSE visible
26 Sep 5.1 04:15:49 10° NW 04:20:11 21° W 04:21:37 19° W visible
27 Sep 5.8 01:09:41 10° N 01:14:38 25° ENE 01:16:25 22° E visible
27 Sep 3.8 02:54:28 10° NNW 03:00:33 67° W 03:01:00 65° WSW visible
27 Sep 5.6 04:42:36 10° NW 04:44:44 12° WNW 04:45:34 12° W visible
28 Sep 5.0 01:34:21 10° N 01:40:05 39° ENE 01:40:29 39° E visible
28 Sep 4.4 03:19:48 10° NNW 03:25:04 40° W 03:25:04 40° W visible
29 Sep 6.4 00:15:48 10° NNE 00:18:41 13° NE 00:20:06 12° ENE visible
29 Sep 4.3 01:59:15 10° N 02:04:41 60° NE 02:04:41 60° NE visible
29 Sep 5.1 03:45:27 10° NNW 03:49:16 23° WNW 03:49:16 23° WNW visible
30 Sep 5.9 00:39:46 10° NNE 00:44:21 22° ENE 00:44:21 22° ENE visible
30 Sep 4.4 02:24:19 10° NNW 02:28:57 53° NNW 02:28:57 53° NNW visible
30 Sep 5.7 04:11:44 10° NW 04:13:33 13° WNW 04:13:33 13° WNW visible
01 Oct 5.5 01:04:20 10° N 01:08:41 32° NE 01:08:41 32° NE visible
01 Oct 4.9 02:49:36 10° NNW 02:53:17 34° NW 02:53:17 34° NW visible
01 Oct 6.5 23:46:21 10° NNE 23:48:22 12° NE 23:48:30 12° NE visible
02 Oct 5.1 01:29:11 10° N 01:33:06 38° NNE 01:33:06 38° NNE visible
02 Oct 5.4 03:15:07 10° NNW 03:17:42 21° NW 03:17:42 21° NW visible
03 Oct 6.2 00:09:53 10° NNE 00:12:57 18° NE 00:12:57 18° NE visible
03 Oct 5.2 01:54:12 10° N 01:57:33 35° N 01:57:33 35° N visible
03 Oct 5.9 03:41:08 10° NW 03:42:09 13° NW 03:42:09 13° NW visible
04 Oct 5.9 00:34:20 10° N 00:37:26 24° NNE 00:37:26 24° NNE visible
04 Oct 5.4 02:19:24 10° NNW 02:22:03 26° NNW 02:22:03 26° NNW visible
